Regional Weather Roundup
Issued by NWS

Home | Current Version | Previous Version | Text Only | Print | Product List | Glossary Off
Versions: 1 2 3 4 5 6 7 8 9 10 11 12 13 14 15 16 17 18 19 20 21 22 23 24 25 26 27 28 29 30 31 32 33 34 35 36 37 38 39 40 41 42 43 44 45 46 47 48 49 50

000
ASUS43 KFSD 180110
RWRSD

WEATHER ROUNDUP FOR SOUTH DAKOTA
NATIONAL WEATHER SERVICE SIOUX FALLS SD
800 PM CDT FRI APR 17 2015

NOTE: "FAIR" INDICATES FEW OR NO CLOUDS BELOW 12,000 FEET WITH NO
SIGNIFICANT WEATHER AND/OR OBSTRUCTIONS TO VISIBILITY.


SDZ001>005-009-010-012>017-180200-
NORTHWEST AND NORTH CENTRAL SOUTH DAKOTA

CITY           SKY/WX    TMP DP  RH WIND       PRES   REMARKS
BUFFALO          N/A     60  32  34 E8        30.03F
FAITH            N/A     63  24  22 E5        30.08F
MOBRIDGE       PTCLDY    62  29  28 NE3       30.05S
$$

SDZ012>016-024>037-041>051-057-063-072>074-180200-
SOUTHWEST AND SOUTH CENTRAL SOUTH DAKOTA

CITY           SKY/WX    TMP DP  RH WIND       PRES   REMARKS
RAPID CTY ARPT CLOUDY    52  39  61 SW8       30.11F
PIERRE         CLOUDY    65  35  33 CALM      30.05S
CUSTER         LGT RAIN  40  36  86 NE8       30.13F
ELLSWORTH AFB  CLOUDY    53  37  54 S9        30.10S
PHILIP         CLOUDY    54  46  74 SW12      30.09S
PINE RIDGE     LGT RAIN  48  45  89 NE8       30.10S FOG
SPEARFISH      FAIR      54  36  50 SE7       30.11F
WINNER         LGT RAIN  58  53  84 W5        30.07F
$$

SDZ004>011-016>023-039-040-180200-
NORTHEAST SOUTH DAKOTA

CITY           SKY/WX    TMP DP  RH WIND       PRES   REMARKS
ABERDEEN       PTCLDY    68  20  16 N5        30.05S HAZE
WATERTOWN      CLEAR     60  26  27 N6        30.06S
BROOKINGS      PTCLDY    64  28  25 N6        30.05S
SISSETON         N/A     64  20  18 CALM      30.03F
$$

SDZ017-020-022-023-036>040-048>070-180200-
SOUTHEAST SOUTH DAKOTA

CITY           SKY/WX    TMP DP  RH WIND       PRES   REMARKS
SIOUX FALLS    CLOUDY    70  41  34 CALM      30.02S
HURON          MOCLDY    66  29  24 N6        30.04S
CHAMBERLAIN    CLOUDY    66  36  32 NE3       30.05S
MITCHELL       CLOUDY    69  34  27 N7        30.04S
YANKTON        CLOUDY    64  50  59 NW7       30.02R
$$

ABBREVIATIONS USED IN REMARKS
   TC - TEMPERATURE IN CELSIUS
  WCI - WIND CHILL INDEX
   HX - HEAT INDEX
  VSB - VISIBILITY



USA.gov is the U.S. government's official web portal to all federal, state and local government web resources and services.